Other Surface Observations
Issued by NWS Tucson, AZ

Home | Current Version | Previous Version | Text Only | Print | Product List | Glossary On
Versions: 1 2 3 4 5 6 7 8 9 10 11 12 13 14 15 16 17 18 19 20 21 22 23 24 25 26 27 28 29 30 31 32 33 34 35 36 37 38 39 40 41 42 43 44 45 46 47 48 49 50
000
SXUS55 KTWC 300015
OSOTWC

WEATHER ROUNDUP FOR SOUTHEAST ARIZONA
NATIONAL WEATHER SERVICE TUCSON AZ
515 PM MST WED MAR 29 2017

AZZ504>506-514-300115-
LOCATION       SKY/WX    TMP DP  RH WIND       PRES   REMARKS
TUCSON         SUNNY     77  25  14 N10       29.98S
DAVIS-MONTHAN  SUNNY     76  27  16 NW10      29.97S
CHILDRENS PARK N/A      N/A N/A  15 W9                PIMA CO DEQ
ALVERNON/22ND  N/A       76 N/A N/A NW8               PIMA CO DEQ
CHERRY/GLENN   N/A      N/A N/A N/A N/A               PIMA CO DEQ
TANGERINE      N/A       77 N/A N/A NW7               PIMA CO DEQ
CONTL RANCH    N/A       77  24  14 NW9               PIMA CO DEQ
GRANT/1ST      N/A       76  23  14 NW9               PIMA CO DEQ
CRAYCROFT/22ND N/A       76  25  15 N/A               PIMA CO DEQ
GOLFLINKS/KOLB N/A       76  25  15 W8                PIMA CO DEQ
AJO/12TH       N/A       77  24  14 W8                PIMA CO DEQ
FAIRGROUNDS    N/A       75 N/A N/A N/A               PIMA CO DEQ
SAGUARO        N/A       78  27  15 W10G18            *SABINO CYN
SAN CARLOS     N/A       81  26  13 NW6G14            *SAN CARLOS
GREEN VALLEY   N/A       75  21  13 W8                PIMA CO DEQ
HORSE CAMP CYN N/A       74  25  16 W7G17             *ARAVAIPA CYN
RINCON MTNS    NOT AVBL
$$

AZZ509>511-300115-
LOCATION       SKY/WX    TMP DP  RH WIND       PRES   REMARKS
SAFFORD        SUNNY     75  26  16 NW14G20   29.92F
STRAY HORSE    N/A       55  15  20 N/A               *
TRAIL CABIN    N/A       64  27  25 W5G12             *N OF GRANVILLE
BLACK HILLS    NOT AVBL
DRY LAKE       N/A       57  15  19 N9G18             *NATANES MTNS
NOON CREEK     NOT AVBL
COLUMBINE      N/A       47  21  36 N5G14             *PINALENO MTNS
GUTHRIE        N/A       59  28  30 SW13G24           *SW OF GUTHRIE
$$

AZZ502-503-513-300115-
LOCATION       SKY/WX    TMP DP  RH WIND       PRES   REMARKS
NOGALES        SUNNY     74  17  11 NW9G18    30.01R
SELLS          N/A       80  19  10 NE8G15            *
SASABE         N/A       78  19  11 N10G20            *ALTAR VLY
HOPKINS        N/A       63  20  19 W5G17             *SANTA RITA MTNS
CARR CYN       N/A       65  20  18 N3G10             *W OF HEREFORD
$$

AZZ507-508-512-300115-
LOCATION       SKY/WX    TMP DP  RH WIND       PRES   REMARKS
SIERRA VISTA   SUNNY     69  18  14 NW8       30.05R
DOUGLAS        SUNNY     71  24  17 VRB5      30.00S
EMPIRE MTNS    NOT AVBL
MULESHOE RANCH N/A       71  27  19 W8G18             *PRESERVE
HEADQUARTERS   NOT AVBL
$$

.............................NOTES.............................
THIS IS AN AUTOMATED COLLECTIVE WITH MINIMAL QUALITY CONTROL.
PIMA CO DEQ SITES HAVE NONSTANDARD WIND SENSOR HEIGHTS.
PIMA CO DEQ SITES DO NOT REPORT WIND GUSTS.
* INDICATES WIND SENSORS LOCATED AT 20 FEET INSTEAD OF 33 FEET.
..............................KEY..............................
SKY/WX - SKY CONDITION/WEATHER
TMP    - TEMPERATURE IN FAHRENHEIT
DP     - DEWPOINT IN FAHRENHEIT
RH     - RELATIVE HUMIDITY IN PERCENT
WIND   - DIRECTION AND SPEED IN MILES PER HOUR (MPH)
VRB    - VARIABLE WIND DIRECTION
PRES   - MEAN SEA LEVEL PRESSURE IN INCHES OF MERCURY
         F - FALLING PRESSURE   R - RISING PRESSURE
         S - STEADY PRESSURE
VSB    - VISIBILITY IN MILES
HX     - HEAT INDEX IN FAHRENHEIT
WCI    - WIND CHILL INDEX IN FAHRENHEIT
N/A    - NOT AVAILABLE
AFB    - AIR FORCE BASE
         DAVIS-MONTHAN IS DAVIS-MONTHAN AIR FORCE BASE
CYN    - CANYON
MTNS   - MOUNTAINS
NCA    - NATIONAL CONSERVATION AREA
NR     - NEAR
VLY    - VALLEY
CONTL  - CONTINENTAL
PIMA CO DEQ - PIMA COUNTY DEPT OF ENVIRONMENTAL QUALITY



USA.gov is the U.S. government's official web portal to all federal, state and local government web resources and services.